International Virtual Aviation Organisation

Russian Federation and Kazakhstan MCD

 

Карточка аэропорта UACC

Внимание!
Информация на этой странице в стадии наполнения.
Если вы не увидели какой-то информации, или заметили неточность - пожалуйста сообщите нам!
Спасибо!
Команда RU-STAFF
Название аэропортаАстана
Название аэропорта (англ.)Astana
Превышение1165 ft. (355.1 m.)
Координаты51°1.3319999999999', 71°28.014'
Высота перехода3790
Эшелон переходаFL60
Коды ответчика0601-0627, 7201-7217
Зона ОрВДАстана РПИ (UACC)
Данные METARUACC 260630Z 17007MPS CAVOK 04/01 Q1019 R22/0///70 NOSIG RMK QFE733/0977
Проноз погоды (TAF)UACC 260500Z 2606/2706 16006MPS 9999 SCT040 BKN100 TX06/2610Z TN00/2701Z BECMG 2612/2614 24006MPS SCT011 BKN020 TEMPO 2612/2623 33006MPS 3100 -SHRA BR FEW005 BKN011CB BECMG 2623/2701 02006MPS
NOTAMshow/hide NOTAM
AWOS   TABLE

Информация о ВПП

ВПП Длина ВПП (м.) Покрытие Курс ВПП Частота ILS
043500Асфальтобетон35109.5
223500Асфальтобетон215111.7

Диспетчерские позиции

Позывной Наименование органа УВД Частота
UACC_APPАстана Подход124.6
UACC_R_APPАстана Круг120.7
UACC_TWRАстана Вышка118.7
UACC_GNDАстана Руление119.6



Спутниковое изображение